| time (UTC) | temp F | wind direction | speed MPH | gust MPH | rain 1hr in | rain 24hr in | rain mn in | humidity % | barometer mb |
| 20260504201510 | 63 | 318 | 4.0 | 12.0 | 0.00 | 0.00 | 0.00 | 24 | 1010.1 |
| 20260504200018 | 64 | 271 | 1.0 | 5.0 | 0.00 | 0.00 | 0.00 | 25 | 1010.1 |
| 20260504194520 | 62 | 113 | 1.0 | 8.0 | 0.00 | 0.00 | 0.00 | 27 | 1010.5 |
| 20260504193023 | 62 | 285 | 2.0 | 6.0 | 0.00 | 0.00 | 0.00 | 27 | 1010.8 |
| 20260504191529 | 62 | 297 | 1.0 | 4.0 | 0.00 | 0.00 | 0.00 | 28 | 1010.9 |
| 20260504190014 | 62 | 319 | 2.0 | 4.0 | 0.00 | 0.00 | 0.00 | 31 | 1011.1 |
| 20260504184528 | 62 | 292 | 1.0 | 6.0 | 0.00 | 0.00 | 0.00 | 31 | 1011.1 |
| 20260504183022 | 61 | 342 | 2.0 | 4.0 | 0.00 | 0.00 | 0.00 | 30 | 1011.4 |
| 20260504181525 | 62 | 146 | 0.0 | 4.0 | 0.00 | 0.00 | 0.00 | 28 | 1011.6 |
| 20260504180028 | 61 | 167 | 2.0 | 4.0 | 0.00 | 0.00 | 0.00 | 31 | 1011.8 |
| 20260504174516 | 60 | 198 | 0.0 | 3.0 | 0.00 | 0.00 | 0.00 | 34 | 1012.0 |
| 20260504173021 | 59 | 59 | 0.0 | 4.0 | 0.00 | 0.00 | 0.00 | 34 | 1012.1 |
| 20260504171506 | 58 | 75 | 1.0 | 4.0 | 0.00 | 0.00 | 0.00 | 37 | 1012.3 |
| 20260504081513 | 37 | 122 | 0.0 | 1.0 | 0.00 | 0.00 | 0.00 | 56 | 1014.0 |
| 20260504044520 | 49 | 174 | 0.0 | 0.0 | 0.00 | 0.00 | 0.00 | 34 | 1014.3 |
| 20260504043027 | 50 | 174 | 0.0 | 0.0 | 0.00 | 0.00 | 0.00 | 30 | 1014.3 |
| 20260504041531 | 50 | 86 | 0.0 | 0.0 | 0.00 | 0.00 | 0.00 | 30 | 1014.4 |
| 20260504040022 | 52 | 86 | 0.0 | 4.0 | 0.00 | 0.00 | 0.00 | 30 | 1014.3 |
| 20260504034523 | 53 | 46 | 0.0 | 3.0 | 0.00 | 0.00 | 0.00 | 27 | 1014.2 |
| 20260504033023 | 54 | 131 | 0.0 | 2.0 | 0.00 | 0.00 | 0.00 | 26 | 1014.0 |
| 20260504031509 | 55 | 28 | 2.0 | 8.0 | 0.00 | 0.00 | 0.00 | 25 | 1013.9 |
| 20260504030011 | 56 | 49 | 4.0 | 6.0 | 0.00 | 0.00 | 0.00 | 24 | 1013.7 |
| 20260504024515 | 58 | 38 | 1.0 | 7.0 | 0.00 | 0.00 | 0.00 | 22 | 1013.6 |
| 20260504023020 | 59 | 46 | 4.0 | 6.0 | 0.00 | 0.00 | 0.00 | 21 | 1013.5 |
| 20260504021525 | 61 | 25 | 2.0 | 3.0 | 0.00 | 0.00 | 0.00 | 19 | 1013.4 |
| 20260504020010 | 64 | 64 | 0.0 | 2.0 | 0.00 | 0.00 | 0.00 | 18 | 1013.4 |
| 20260504014519 | 65 | 295 | 2.0 | 6.0 | 0.00 | 0.00 | 0.00 | 17 | 1013.5 |
| 20260504013016 | 66 | 290 | 2.0 | 6.0 | 0.00 | 0.00 | 0.00 | 18 | 1013.5 |
| 20260504011522 | 67 | 290 | 3.0 | 5.0 | 0.00 | 0.00 | 0.00 | 19 | 1013.6 |
| 20260504010024 | 67 | 303 | 3.0 | 5.0 | 0.00 | 0.00 | 0.00 | 20 | 1013.7 |
| 20260504004516 | 67 | 335 | 3.0 | 8.0 | 0.00 | 0.00 | 0.00 | 20 | 1013.7 |
| 20260504003029 | 68 | 337 | 3.0 | 7.0 | 0.00 | 0.00 | 0.00 | 20 | 1013.7 |
| 20260504001526 | 68 | 301 | 3.0 | 9.0 | 0.00 | 0.00 | 0.00 | 21 | 1013.9 |
| 20260504000022 | 68 | 322 | 4.0 | 11.0 | 0.00 | 0.00 | 0.00 | 19 | 1013.9 |
| 20260503234526 | 68 | 283 | 6.0 | 12.0 | 0.00 | 0.00 | 0.00 | 19 | 1013.9 |
| 20260503233016 | 65 | 307 | 4.0 | 8.0 | 0.00 | 0.00 | 0.00 | 22 | 1013.9 |
| 20260503231523 | 66 | 321 | 4.0 | 8.0 | 0.00 | 0.00 | 0.00 | 20 | 1014.1 |
| 20260503230026 | 67 | 302 | 5.0 | 12.0 | 0.00 | 0.00 | 0.00 | 20 | 1014.5 |
| 20260503224524 | 68 | 281 | 2.0 | 10.0 | 0.00 | 0.00 | 0.00 | 16 | 1014.2 |
| 20260503223026 | 68 | 289 | 5.0 | 12.0 | 0.00 | 0.00 | 0.00 | 17 | 1014.5 |
| 20260503221521 | 68 | 244 | 3.0 | 8.0 | 0.00 | 0.00 | 0.00 | 16 | 1014.5 |
| 20260503220016 | 68 | 270 | 4.0 | 9.0 | 0.00 | 0.00 | 0.00 | 18 | 1014.7 |
| 20260503214521 | 67 | 272 | 2.0 | 11.0 | 0.00 | 0.00 | 0.00 | 15 | 1015.1 |
| 20260503213025 | 67 | 300 | 6.0 | 11.0 | 0.00 | 0.00 | 0.00 | 15 | 1015.5 |
| 20260503211528 | 67 | 139 | 0.0 | 7.0 | 0.00 | 0.00 | 0.00 | 15 | 1015.6 |
| 20260503210014 | 67 | 195 | 6.0 | 10.0 | 0.00 | 0.00 | 0.00 | 16 | 1015.8 |
| 20260503204523 | 67 | 260 | 5.0 | 11.0 | 0.00 | 0.00 | 0.00 | 19 | 1015.8 |
| 20260503203022 | 65 | 194 | 5.0 | 11.0 | 0.00 | 0.00 | 0.00 | 18 | 1016.0 |